Flag for Germany Weather past 2 weeks in Weißenfels, Saxony-Anhalt, Germany

Now
50 °F

Overcast.


Feels Like: 49 °F
Forecast: 45 / 57 °F
Wind: 5 mph from Southwest

Location: Leipzig-Schkeuditz

Current Time: Oct 25, 2014 at 11:30:30 AM

Latest Report: Oct 25, 2014 at 11:00 AM


Visibility: 11 mi

Pressure: 30.13 "Hg

Humidity: 83%

Dew point: 45 °F

Location of WeißenfelsLocation

Historic Weather in Weißenfels — Graph

°F

Weißenfels temperature yesterday

Maximum temperature yesterday: 57 °F (at 2:00 PM)
Minimum temperature yesterday: 44 °F (at 10:00 PM)
Average temperature yesterday: 49 °F

Past Weeks' High & Low Weather Summary

 TemperatureHumidityPressure
High72 °F (Oct 19, 3:00 PM)97% (Oct 12, 2:00 AM)30.25 "Hg (Oct 12, 2:00 AM)
Low42 °F (Oct 25, 12:00 AM)49% (Oct 15, 4:00 PM)29.47 "Hg (Oct 21, 9:00 PM)
Average55 °F86%29.93 "Hg
* Reported Oct 10 10:00 AM — Oct 25 10:00 AM, Weißenfels, Weather by CustomWeather, © 2014

Note: Actual official high and low records may vary slightly from our data, if they occured in-between our weather recording intervals... More about our weather records

Advertising

Weißenfels weather history for previous 24 hours

 ConditionsComfort  
Time TempWeatherWind HumidityBarometerVisibility
10:00 AM
Oct 25
47 °FOvercast.6 mph88%30.13 "Hg11 mi
9:00 AM45 °FOvercast.5 mph93%30.13 "Hg9 mi
8:00 AM44 °FOvercast.5 mph93%30.11 "Hg9 mi
7:00 AM43 °FPassing clouds.3 mph94%30.12 "Hg12 mi
6:00 AM44 °FPassing clouds.3 mph94%30.13 "Hg9 mi
4:00 AM43 °FPassing clouds.5 mph97%30.14 "Hg12 mi
3:00 AM43 °FPassing clouds.5 mph97%30.15 "Hg12 mi
2:00 AM43 °FPassing clouds.5 mph97%30.15 "Hg12 mi
1:00 AM43 °FPassing clouds.5 mph97%30.16 "Hg12 mi
12:00 AM42 °FPassing clouds.3 mph96%30.17 "Hg7 mi
11:00 PM
Oct 24
44 °FPassing clouds.5 mph95%30.17 "Hg6 mi
10:00 PM44 °FPassing clouds.5 mph95%30.17 "Hg6 mi
9:00 PM45 °FPassing clouds.5 mph94%30.17 "Hg6 mi
8:00 PM46 °FPassing clouds.6 mph93%30.18 "Hg6 mi
7:00 PM47 °FPassing clouds.5 mph94%30.18 "Hg5 mi
6:00 PM51 °FPassing clouds.5 mph88%30.18 "Hg12 mi
4:00 PM55 °FPartly sunny.5 mph69%30.18 "Hg14 mi
3:00 PM56 °FScattered clouds.3 mph65%30.20 "Hg16 mi
2:00 PM57 °FScattered clouds.3 mph63%30.21 "Hg14 mi
1:00 PM56 °FScattered clouds.3 mph73%30.24 "Hg11 mi
12:00 PM54 °FScattered clouds.5 mph83%30.25 "Hg7 mi
Weather by CustomWeather, © 2014

See weather overviewHow to use our weather pages